This demonstration page uses our WeatherBlox Daily Observations layout. Learn more.

Left ArrowRight Arrow

Hourly Observations for September 8, 2021

Temp ( °F °C ) Dew Point ( °F °C ) Humidity (%) Winds ( mph kmh ) Pressure ( in mb ) Visibility ( mi km ) Precip ( " mm )
12:15 am 00:15 Clear 68 20 63 17 83 83 SSW 3 6 29.94 1014 10 16 N/A
12:35 am 00:35 Clear 70 21 63 17 78 78 S 6 9 29.94 1014 10 16 N/A
12:55 am 00:55 Clear 68 20 63 17 83 83 S 7 11 29.94 1014 10 16 N/A
1:15 am 01:15 Clear 68 20 63 17 83 83 S 6 9 29.93 1014 10 16 N/A
1:35 am 01:35 Clear 66 19 63 17 88 88 S 3 6 29.92 1013 10 16 N/A
1:55 am 01:55 Clear 66 19 63 17 88 88 S 7 11 29.92 1013 10 16 N/A
2:15 am 02:15 Clear 66 19 63 17 88 88 SSW 6 9 29.92 1013 10 16 N/A
2:35 am 02:35 Clear 66 19 63 17 88 88 S 8 13 29.91 1013 10 16 N/A
2:55 am 02:55 Clear 66 19 63 17 88 88 SSW 8 13 29.90 1013 10 16 N/A
3:15 am 03:15 Clear 64 18 63 17 94 94 SSW 7 11 29.90 1013 10 16 N/A
3:35 am 03:35 Clear 64 18 63 17 94 94 SSW 6 9 29.90 1013 10 16 N/A
3:55 am 03:55 Clear 64 18 63 17 94 94 SSW 6 9 29.89 1012 10 16 N/A
4:15 am 04:15 Clear 64 18 63 17 94 94 S 6 9 29.89 1012 10 16 N/A
4:35 am 04:35 Clear 64 18 63 17 94 94 S 7 11 29.88 1012 10 16 N/A
4:55 am 04:55 Partly Cloudy 64 18 63 17 94 94 SSW 6 9 29.88 1012 10 16 N/A
5:15 am 05:15 Mostly Cloudy 64 18 63 17 94 94 SSW 7 11 29.88 1012 10 16 N/A
5:35 am 05:35 Mostly Cloudy 64 18 63 17 94 94 S 8 13 29.87 1012 10 16 N/A
5:55 am 05:55 Mostly Cloudy 66 19 63 17 88 88 SSW 6 9 29.87 1012 10 16 N/A
6:15 am 06:15 Cloudy 66 19 63 17 88 88 SSW 7 11 29.88 1012 10 16 N/A
6:35 am 06:35 Mostly Cloudy 64 18 63 17 94 94 SSW 6 9 29.88 1012 10 16 N/A
6:55 am 06:55 Sunny 64 18 63 17 94 94 SSW 6 9 29.88 1012 10 16 N/A
7:15 am 07:15 Sunny 64 18 63 17 94 94 SW 6 9 29.89 1012 10 16 N/A
7:35 am 07:35 Sunny 64 18 63 17 94 94 SSW 5 7 29.89 1012 10 16 N/A
7:55 am 07:55 Sunny 66 19 64 18 94 94 S 6 9 29.89 1012 10 16 N/A
8:15 am 08:15 Mostly Cloudy 68 20 64 18 88 88 S 6 9 29.88 1012 10 16 N/A
8:35 am 08:35 Partly Cloudy 68 20 64 18 88 88 S 6 9 29.88 1012 10 16 N/A
8:55 am 08:55 Sunny 70 21 64 18 83 83 S 7 11 29.88 1012 10 16 N/A
9:15 am 09:15 Sunny 72 22 66 19 83 83 S 7 11 29.87 1011 10 16 N/A
9:35 am 09:35 Sunny 72 22 66 19 83 83 S 3 6 29.87 1011 10 16 N/A
9:55 am 09:55 Sunny 73 23 66 19 78 78 S 6 9 29.86 1011 10 16 N/A
10:15 am 10:15 Sunny 75 24 68 20 78 78 S 5 7 29.87 1011 10 16 N/A
10:35 am 10:35 Sunny 77 25 68 20 74 74 SSW 8 13 29.86 1011 10 16 N/A
10:55 am 10:55 Sunny 79 26 68 20 70 70 SSW 7 11 29.85 1011 10 16 N/A
11:15 am 11:15 Sunny 81 27 70 21 70 70 SSW 9 15 29.86 1011 10 16 N/A
11:35 am 11:35 Sunny 81 27 70 21 70 70 SW 6 9 29.85 1011 10 16 N/A
11:55 am 11:55 Sunny 81 27 70 21 70 70 S 7 11 29.85 1011 10 16 N/A
12:15 pm 12:15 Sunny 82 28 70 21 66 66 S 6 9 29.85 1011 10 16 N/A
12:35 pm 12:35 Sunny 84 29 70 21 62 62 S 8 13 29.83 1010 10 16 N/A
12:55 pm 12:55 Sunny 86 30 70 21 59 59 SSW 10 17 29.82 1010 10 16 N/A
1:15 pm 13:15 Sunny 86 30 70 21 59 59 SW 8 13 29.81 1009 10 16 N/A
1:35 pm 13:35 Sunny 88 31 70 21 55 55 SW 12 19 29.81 1009 10 16 N/A
1:55 pm 13:55 Partly Cloudy 88 31 68 20 52 52 WSW 8 13 29.80 1009 10 16 N/A
2:15 pm 14:15 Partly Cloudy 88 31 70 21 55 55 WSW 7 11 29.79 1009 10 16 N/A
2:35 pm 14:35 Partly Cloudy 88 31 68 20 52 52 WSW 8 13 29.78 1008 10 16 N/A
2:55 pm 14:55 Sunny 86 30 68 20 55 55 SW 9 15 29.77 1008 10 16 N/A
3:15 pm 15:15 Sunny 88 31 68 20 52 52 S 9 15 29.76 1008 10 16 N/A
3:35 pm 15:35 Sunny 88 31 68 20 52 52 S 9 15 29.75 1007 10 16 N/A
3:55 pm 15:55 Sunny 88 31 68 20 52 52 SW 9 15 29.75 1007 10 16 N/A
4:15 pm 16:15 Sunny 88 31 68 20 52 52 SSW 7 11 29.74 1007 10 16 N/A
4:35 pm 16:35 Partly Cloudy 88 31 68 20 52 52 SSW 10 17 29.74 1007 10 16 N/A
4:55 pm 16:55 Sunny 88 31 68 20 52 52 SW 9 15 29.74 1007 10 16 N/A
5:15 pm 17:15 Sunny 88 31 68 20 52 52 SW 13 20 29.75 1007 10 16 N/A
5:35 pm 17:35 Partly Cloudy 88 31 70 21 55 55 SSW 9 15 29.75 1007 10 16 N/A
5:55 pm 17:55 Sunny 86 30 70 21 59 59 SSW 7 11 29.74 1007 10 16 N/A
6:15 pm 18:15 Sunny 86 30 70 21 59 59 SSW 7 11 29.74 1007 10 16 N/A
6:35 pm 18:35 Sunny 86 30 70 21 59 59 S 6 9 29.75 1007 10 16 N/A
6:55 pm 18:55 Sunny 84 29 72 22 66 66 S 7 11 29.74 1007 10 16 N/A
7:15 pm 19:15 Sunny 82 28 72 22 70 70 S 12 19 29.74 1007 10 16 N/A
7:35 pm 19:35 Clear 82 28 73 23 74 74 S 10 17 29.75 1007 10 16 N/A
7:55 pm 19:55 Clear 81 27 73 23 79 79 S 9 15 29.75 1008 10 16 N/A
8:15 pm 20:15 Partly Cloudy 81 27 73 23 79 79 S 6 9 29.76 1008 10 16 N/A
8:35 pm 20:35 Partly Cloudy 81 27 73 23 79 79 S 9 15 29.76 1008 10 16 N/A
8:55 pm 20:55 Clear 79 26 73 23 84 84 S 9 15 29.76 1008 10 16 N/A
9:15 pm 21:15 Partly Cloudy 79 26 73 23 84 84 S 12 19 29.75 1008 10 16 N/A
9:35 pm 21:35 Clear with Thunderstorms 79 26 73 23 84 84 S 9 15 29.75 1008 10 16 N/A
9:55 pm 21:55 Clear 79 26 72 22 79 79 S 10 17 29.74 1007 10 16 N/A
10:15 pm 22:15 Mostly Cloudy 77 25 72 22 83 83 W 9 15 29.77 1008 10 16 N/A
10:35 pm 22:35 Cloudy 77 25 72 22 83 83 NNW 14 22 29.78 1009 10 16 N/A
10:55 pm 22:55 Cloudy with Thunderstorms 73 23 68 20 83 83 NW 12 19 29.79 1009 10 16 N/A
11:15 pm 23:15 Cloudy with Thunderstorms 72 22 68 20 88 88 NNW 13 20 29.79 1009 10 16 N/A
11:35 pm 23:35 Cloudy with Strong Thunderstorms 68 20 68 20 100 100 N N/A 29.82 1010 1 2 0.61 15.49
11:55 pm 23:55 Cloudy with Rain 68 20 68 20 100 100 W 3 6 29.82 1010 7 11 0.73 18.54

Powered by AerisWeather